CYRJ

Roberval Airport

Code ICAO CYRJ
Code IATA YRJ
Nom Roberval Airport
Emplacement Roberval, Quebec, CA
Élévation 586 pieds / 178.6 mètres
Latitude 48.52000000
Longitude -72.26583333
METAR CYRJ 112100Z 29011G20KT 40SM BKN047 19/10 A2986 RMK SC6 SLP117 DENSITY ALT 1300FT
Informations extras Afficher NOTAMS
Afficher cartes
Piste Longueur Largeur Surface Élévation
16 5000 ft 150 ft ASP 586 ft
34 5000 ft 150 ft ASP 560 ft